| time (UTC) | temp F | wind direction | speed MPH | gust MPH | rain 1hr in | rain 24hr in | rain mn in | humidity % | barometer mb |
| 20260506131803 | 55 | 117 | 3.0 | 4.0 | 0.00 | 0.00 | 0.00 | 28 | 1007.9 |
| 20260506130905 | 53 | 235 | 3.0 | 8.0 | 0.00 | 0.00 | 0.00 | 31 | 1008.1 |
| 20260506130004 | 52 | 229 | 6.0 | 9.0 | 0.00 | 0.00 | 0.00 | 31 | 1008.2 |
| 20260506125403 | 53 | 198 | 4.0 | 11.0 | 0.00 | 0.00 | 0.00 | 31 | 1008.3 |
| 20260506124505 | 53 | 249 | 7.0 | 14.0 | 0.00 | 0.00 | 0.00 | 30 | 1008.1 |
| 20260506123624 | 54 | 205 | 7.0 | 11.0 | 0.00 | 0.00 | 0.00 | 29 | 1008.2 |
| 20260506122703 | 53 | 152 | 2.0 | 7.0 | 0.00 | 0.00 | 0.00 | 31 | 1008.2 |
| 20260506121803 | 52 | 180 | 4.0 | 11.0 | 0.00 | 0.00 | 0.00 | 31 | 1008.3 |
| 20260506120905 | 52 | 173 | 5.0 | 11.0 | 0.00 | 0.00 | 0.00 | 30 | 1008.4 |
| 20260506120004 | 53 | 178 | 7.0 | 11.0 | 0.00 | 0.00 | 0.00 | 30 | 1008.3 |
| 20260506115424 | 55 | 165 | 6.0 | 11.0 | 0.00 | 0.00 | 0.00 | 31 | 1008.4 |
| 20260506114524 | 54 | 153 | 3.0 | 7.0 | 0.00 | 0.00 | 0.00 | 30 | 1008.3 |
| 20260506113603 | 53 | 98 | 4.0 | 8.0 | 0.00 | 0.00 | 0.00 | 32 | 1008.6 |
| 20260506112703 | 54 | 195 | 2.0 | 9.0 | 0.00 | 0.00 | 0.00 | 30 | 1008.6 |
| 20260506111803 | 51 | 259 | 7.0 | 13.0 | 0.00 | 0.00 | 0.00 | 32 | 1008.5 |
| 20260506110903 | 53 | 264 | 2.0 | 8.0 | 0.00 | 0.00 | 0.00 | 30 | 1008.5 |
| 20260506110003 | 54 | 244 | 3.0 | 7.0 | 0.00 | 0.00 | 0.00 | 33 | 1008.6 |
| 20260506105403 | 51 | 294 | 4.0 | 4.0 | 0.00 | 0.00 | 0.00 | 33 | 1008.7 |
| 20260506104524 | 52 | 349 | 1.0 | 7.0 | 0.00 | 0.00 | 0.00 | 32 | 1008.7 |
| 20260506103624 | 52 | 312 | 4.0 | 9.0 | 0.00 | 0.00 | 0.00 | 32 | 1008.7 |
| 20260506102703 | 51 | 251 | 4.0 | 8.0 | 0.00 | 0.00 | 0.00 | 33 | 1008.7 |
| 20260506101803 | 50 | 232 | 4.0 | 9.0 | 0.00 | 0.00 | 0.00 | 33 | 1008.9 |
| 20260506100905 | 50 | 257 | 5.0 | 14.0 | 0.00 | 0.00 | 0.00 | 33 | 1008.9 |
| 20260506100004 | 51 | 209 | 4.0 | 9.0 | 0.00 | 0.00 | 0.00 | 34 | 1008.9 |
| 20260506095403 | 52 | 243 | 7.0 | 11.0 | 0.00 | 0.00 | 0.00 | 32 | 1009.2 |
| 20260506094505 | 51 | 262 | 2.0 | 14.0 | 0.00 | 0.00 | 0.00 | 33 | 1009.2 |
| 20260506093603 | 49 | 241 | 6.0 | 20.0 | 0.00 | 0.00 | 0.00 | 33 | 1009.0 |
| 20260506092703 | 49 | 259 | 11.0 | 20.0 | 0.00 | 0.00 | 0.00 | 32 | 1009.0 |
| 20260506091803 | 53 | 153 | 3.0 | 6.0 | 0.00 | 0.00 | 0.00 | 32 | 1009.1 |
| 20260506090903 | 50 | 214 | 2.0 | 11.0 | 0.00 | 0.00 | 0.00 | 30 | 1009.0 |
| 20260506090003 | 50 | 134 | 3.0 | 13.0 | 0.00 | 0.00 | 0.00 | 33 | 1009.1 |
| 20260506085403 | 50 | 97 | 8.0 | 13.0 | 0.00 | 0.00 | 0.00 | 32 | 1009.2 |
| 20260506084503 | 49 | 113 | 2.0 | 11.0 | 0.00 | 0.00 | 0.00 | 34 | 1009.3 |
| 20260506083603 | 50 | 127 | 3.0 | 11.0 | 0.00 | 0.00 | 0.00 | 35 | 1009.5 |
| 20260506082703 | 48 | 192 | 4.0 | 8.0 | 0.00 | 0.00 | 0.00 | 37 | 1009.4 |
| 20260506081803 | 50 | 117 | 3.0 | 6.0 | 0.00 | 0.00 | 0.00 | 38 | 1009.4 |
| 20260506080903 | 49 | 107 | 2.0 | 9.0 | 0.00 | 0.00 | 0.00 | 38 | 1009.5 |
| 20260506072703 | 46 | 106 | 2.0 | 7.0 | 0.00 | 0.00 | 0.00 | 39 | 1009.6 |
| 20260506071803 | 45 | 134 | 2.0 | 6.0 | 0.00 | 0.00 | 0.00 | 47 | 1009.4 |
| 20260506070924 | 45 | 135 | 1.0 | 4.0 | 0.00 | 0.00 | 0.00 | 44 | 1009.3 |
| 20260506061824 | 41 | 111 | 0.0 | 2.0 | 0.00 | 0.00 | 0.00 | 62 | 1009.3 |
| 20260506060905 | 40 | 94 | 1.0 | 2.0 | 0.00 | 0.00 | 0.00 | 64 | 1009.4 |
| 20260506050905 | 34 | 112 | 0.0 | 2.0 | 0.00 | 0.00 | 0.00 | 84 | 1009.3 |
| 20260506044503 | 33 | 126 | 1.0 | 2.0 | 0.00 | 0.00 | 0.00 | 87 | 1009.4 |
| 20260506043603 | 33 | 241 | 1.0 | 2.0 | 0.00 | 0.00 | 0.00 | 85 | 1009.2 |
| 20260506042703 | 33 | 247 | 0.0 | 2.0 | 0.00 | 0.00 | 0.00 | 85 | 1009.3 |
| 20260506041803 | 33 | 247 | 0.0 | 2.0 | 0.00 | 0.00 | 0.00 | 85 | 1009.3 |
| 20260506040903 | 32 | 247 | 0.0 | 2.0 | 0.00 | 0.00 | 0.00 | 84 | 1009.3 |
| 20260506040003 | 32 | 0 | 0.0 | 0.0 | 0.00 | 0.00 | 0.00 | 85 | 1009.0 |
| 20260506035403 | 31 | 0 | 0.0 | 0.0 | 0.00 | 0.00 | 0.00 | 86 | 1009.2 |
| 20260506034505 | 30 | 0 | 0.0 | 0.0 | 0.00 | 0.00 | 0.00 | 88 | 1008.9 |
| 20260506033603 | 29 | 0 | 0.0 | 0.0 | 0.00 | 0.00 | 0.00 | 89 | 1009.1 |
| 20260506032704 | 29 | 0 | 0.0 | 0.0 | 0.00 | 0.00 | 0.00 | 93 | 1009.0 |
| 20260506031803 | 26 | 0 | 0.0 | 0.0 | 0.00 | 0.00 | 0.00 | 94 | 1008.7 |
| 20260506030924 | 26 | 0 | 0.0 | 0.0 | 0.00 | 0.00 | 0.00 | 93 | 1008.9 |
| 20260506030027 | 26 | 0 | 0.0 | 0.0 | 0.00 | 0.00 | 0.00 | 92 | 1008.7 |
| 20260506025405 | 26 | 0 | 0.0 | 0.0 | 0.00 | 0.00 | 0.00 | 92 | 1008.6 |
| 20260506024503 | 26 | 0 | 0.0 | 0.0 | 0.00 | 0.00 | 0.00 | 91 | 1008.4 |
| 20260506023603 | 27 | 0 | 0.0 | 0.0 | 0.00 | 0.00 | 0.00 | 91 | 1008.7 |
| 20260506022724 | 27 | 0 | 0.0 | 0.0 | 0.00 | 0.00 | 0.00 | 91 | 1008.5 |
| 20260506021805 | 27 | 0 | 0.0 | 0.0 | 0.00 | 0.00 | 0.00 | 91 | 1008.5 |
| 20260506020903 | 26 | 0 | 0.0 | 0.0 | 0.00 | 0.00 | 0.00 | 91 | 1008.5 |
| 20260506020003 | 27 | 0 | 0.0 | 0.0 | 0.00 | 0.00 | 0.00 | 91 | 1008.4 |
| 20260506015403 | 27 | 0 | 0.0 | 0.0 | 0.00 | 0.00 | 0.00 | 91 | 1008.4 |
| 20260506014503 | 27 | 0 | 0.0 | 0.0 | 0.00 | 0.00 | 0.00 | 92 | 1008.1 |
| 20260506013605 | 26 | 0 | 0.0 | 0.0 | 0.00 | 0.00 | 0.00 | 91 | 1008.2 |
| 20260506012703 | 27 | 0 | 0.0 | 0.0 | 0.00 | 0.00 | 0.00 | 90 | 1008.1 |
| 20260506011805 | 27 | 247 | 0.0 | 2.0 | 0.00 | 0.00 | 0.00 | 90 | 1008.4 |
| 20260506010924 | 27 | 0 | 0.0 | 0.0 | 0.00 | 0.00 | 0.00 | 91 | 1008.1 |
| 20260506010005 | 27 | 0 | 0.0 | 0.0 | 0.00 | 0.00 | 0.00 | 90 | 1008.0 |
| 20260506005405 | 28 | 0 | 0.0 | 0.0 | 0.00 | 0.00 | 0.00 | 90 | 1008.0 |
| 20260506004524 | 28 | 0 | 0.0 | 0.0 | 0.00 | 0.00 | 0.00 | 90 | 1007.9 |
| 20260506003605 | 28 | 0 | 0.0 | 0.0 | 0.00 | 0.00 | 0.00 | 89 | 1007.8 |
| 20260506002703 | 28 | 0 | 0.0 | 0.0 | 0.00 | 0.00 | 0.00 | 87 | 1007.6 |
| 20260506001803 | 29 | 0 | 0.0 | 0.0 | 0.00 | 0.00 | 0.00 | 87 | 1007.7 |
| 20260506000905 | 29 | 0 | 0.0 | 0.0 | 0.00 | 0.00 | 0.00 | 87 | 1007.7 |
| 20260506000025 | 29 | 0 | 0.0 | 0.0 | 0.00 | 0.00 | 0.00 | 86 | 1007.5 |
| 20260505235403 | 30 | 0 | 0.0 | 0.0 | 0.00 | 0.00 | 0.00 | 85 | 1007.4 |
| 20260505234503 | 30 | 247 | 0.0 | 2.0 | 0.00 | 0.00 | 0.00 | 85 | 1007.4 |
| 20260505233603 | 30 | 247 | 1.0 | 2.0 | 0.00 | 0.00 | 0.00 | 83 | 1007.5 |
| 20260505232705 | 31 | 0 | 0.0 | 0.0 | 0.00 | 0.00 | 0.00 | 81 | 1007.7 |
| 20260505231805 | 31 | 0 | 0.0 | 0.0 | 0.00 | 0.00 | 0.00 | 81 | 1007.5 |
| 20260505230903 | 32 | 247 | 0.0 | 2.0 | 0.00 | 0.00 | 0.00 | 78 | 1007.3 |
| 20260505230024 | 33 | 247 | 0.0 | 2.0 | 0.00 | 0.00 | 0.00 | 75 | 1007.5 |
| 20260505225403 | 34 | 247 | 2.0 | 2.0 | 0.00 | 0.00 | 0.00 | 75 | 1007.4 |
| 20260505224503 | 33 | 247 | 1.0 | 2.0 | 0.00 | 0.00 | 0.00 | 77 | 1007.2 |
| 20260505223603 | 33 | 247 | 1.0 | 2.0 | 0.00 | 0.00 | 0.00 | 79 | 1007.6 |
| 20260505222703 | 32 | 247 | 2.0 | 2.0 | 0.00 | 0.00 | 0.00 | 79 | 1007.2 |
| 20260505221803 | 32 | 247 | 0.0 | 2.0 | 0.00 | 0.00 | 0.00 | 80 | 1007.2 |
| 20260505220903 | 33 | 247 | 1.0 | 2.0 | 0.00 | 0.00 | 0.00 | 79 | 1007.3 |
| 20260505220003 | 34 | 247 | 0.0 | 4.0 | 0.00 | 0.00 | 0.00 | 74 | 1007.2 |
| 20260505215404 | 35 | 247 | 1.0 | 4.0 | 0.00 | 0.00 | 0.00 | 70 | 1007.0 |
| 20260505214503 | 36 | 247 | 2.0 | 4.0 | 0.00 | 0.00 | 0.00 | 69 | 1007.1 |
| 20260505213603 | 36 | 247 | 2.0 | 2.0 | 0.00 | 0.00 | 0.00 | 70 | 1006.8 |
| 20260505212703 | 37 | 247 | 1.0 | 4.0 | 0.00 | 0.00 | 0.00 | 67 | 1006.9 |
| 20260505211825 | 37 | 247 | 2.0 | 4.0 | 0.00 | 0.00 | 0.00 | 67 | 1006.9 |
| 20260505210925 | 37 | 245 | 2.0 | 4.0 | 0.00 | 0.00 | 0.00 | 67 | 1006.8 |
| 20260505210003 | 37 | 243 | 2.0 | 4.0 | 0.00 | 0.00 | 0.00 | 67 | 1006.5 |
| 20260505205403 | 38 | 242 | 2.0 | 4.0 | 0.00 | 0.00 | 0.00 | 65 | 1006.5 |
| 20260505204503 | 38 | 247 | 2.0 | 4.0 | 0.00 | 0.00 | 0.00 | 64 | 1006.6 |
| 20260505203604 | 38 | 241 | 2.0 | 4.0 | 0.00 | 0.00 | 0.00 | 63 | 1006.5 |
| 20260505202726 | 39 | 241 | 3.0 | 4.0 | 0.00 | 0.00 | 0.00 | 63 | 1006.3 |
| 20260505201805 | 39 | 236 | 2.0 | 6.0 | 0.00 | 0.00 | 0.00 | 64 | 1006.6 |
| 20260505200905 | 40 | 241 | 3.0 | 4.0 | 0.00 | 0.00 | 0.00 | 63 | 1006.1 |
| 20260505200004 | 40 | 236 | 4.0 | 4.0 | 0.00 | 0.00 | 0.00 | 61 | 1006.2 |
| 20260505195403 | 40 | 233 | 2.0 | 4.0 | 0.00 | 0.00 | 0.00 | 57 | 1006.2 |
| 20260505194503 | 41 | 254 | 2.0 | 4.0 | 0.00 | 0.00 | 0.00 | 56 | 1006.0 |
| 20260505193604 | 41 | 266 | 2.0 | 2.0 | 0.00 | 0.00 | 0.00 | 55 | 1006.2 |
| 20260505192724 | 42 | 265 | 1.0 | 4.0 | 0.00 | 0.00 | 0.00 | 55 | 1005.8 |
| 20260505191803 | 42 | 265 | 2.0 | 4.0 | 0.00 | 0.00 | 0.00 | 53 | 1005.8 |
| 20260505190903 | 42 | 270 | 2.0 | 4.0 | 0.00 | 0.00 | 0.00 | 53 | 1005.7 |
| 20260505190024 | 43 | 270 | 2.0 | 4.0 | 0.00 | 0.00 | 0.00 | 52 | 1005.6 |
| 20260505185425 | 43 | 266 | 2.0 | 4.0 | 0.00 | 0.00 | 0.00 | 51 | 1005.8 |
| 20260505184503 | 43 | 254 | 2.0 | 4.0 | 0.00 | 0.00 | 0.00 | 50 | 1005.7 |
| 20260505183625 | 44 | 273 | 3.0 | 4.0 | 0.00 | 0.00 | 0.00 | 51 | 1005.7 |
| 20260505182724 | 44 | 272 | 3.0 | 4.0 | 0.00 | 0.00 | 0.00 | 50 | 1005.4 |
| 20260505181803 | 44 | 280 | 3.0 | 6.0 | 0.00 | 0.00 | 0.00 | 49 | 1005.3 |
| 20260505180903 | 44 | 285 | 3.0 | 7.0 | 0.00 | 0.00 | 0.00 | 48 | 1005.4 |
| 20260505180004 | 45 | 288 | 4.0 | 6.0 | 0.00 | 0.00 | 0.00 | 48 | 1005.2 |
| 20260505175403 | 45 | 286 | 3.0 | 11.0 | 0.00 | 0.00 | 0.00 | 48 | 1005.3 |
| 20260505174504 | 46 | 284 | 2.0 | 7.0 | 0.00 | 0.00 | 0.00 | 48 | 1005.1 |
| 20260505173605 | 45 | 295 | 5.0 | 8.0 | 0.00 | 0.00 | 0.00 | 49 | 1005.2 |
| 20260505172724 | 45 | 302 | 3.0 | 13.0 | 0.00 | 0.00 | 0.00 | 49 | 1005.1 |
| 20260505171803 | 45 | 327 | 10.0 | 13.0 | 0.00 | 0.00 | 0.00 | 47 | 1005.1 |
| 20260505170903 | 45 | 324 | 6.0 | 14.0 | 0.00 | 0.00 | 0.00 | 48 | 1005.0 |
| 20260505170004 | 45 | 318 | 7.0 | 21.0 | 0.00 | 0.00 | 0.00 | 48 | 1005.1 |
| 20260505165403 | 46 | 341 | 4.0 | 6.0 | 0.00 | 0.00 | 0.00 | 44 | 1005.1 |
| 20260505164504 | 47 | 355 | 3.0 | 6.0 | 0.00 | 0.00 | 0.00 | 44 | 1004.7 |
| 20260505163603 | 47 | 331 | 4.0 | 7.0 | 0.00 | 0.00 | 0.00 | 42 | 1004.5 |
| 20260505162703 | 47 | 339 | 5.0 | 9.0 | 0.00 | 0.00 | 0.00 | 40 | 1004.5 |
| 20260505161805 | 48 | 338 | 5.0 | 9.0 | 0.00 | 0.00 | 0.00 | 38 | 1004.5 |
| 20260505160903 | 46 | 311 | 7.0 | 13.0 | 0.00 | 0.00 | 0.00 | 41 | 1004.6 |
| 20260505152703 | 48 | 298 | 3.0 | 7.0 | 0.00 | 0.00 | 0.00 | 36 | 1004.2 |
| 20260505151803 | 49 | 263 | 4.0 | 11.0 | 0.00 | 0.00 | 0.00 | 31 | 1004.0 |
| 20260505150903 | 49 | 284 | 8.0 | 11.0 | 0.00 | 0.00 | 0.00 | 32 | 1004.1 |